Location: Kraków
(50.0647°N, 19.9450°E)
Time: 23:50:03
(UTC+02:00)

Envisat - Pass Details

Date: 01 April 2020
Orbit: 764 x 766 km, 98.1° (Epoch: 06 June)

Event Time Altitude Azimuth Distance (km) Brightness Sun altitude
Rises 19:41:29 0° 213° (SSW) 3,222 6.5 -5.3°
Reaches altitude 10° 19:44:41 10° 235° (SW) 2,302 6.1 -5.8°
Maximum altitude 19:47:46 16° 273° (W) 1,919 6.5 -6.3°
Drops below altitude 10° 19:50:53 10° 311° (NW) 2,314 6.7 -6.8°
Sets 19:54:07 0° 332° (NNW) 3,247 7.0 -7.3°
